Regional Weather Roundup
Issued by NWS

Home | Current Version | Previous Version | Graphics & Text | Print | Product List | Glossary On
Versions: 1 2 3 4 5 6 7 8 9 10 11 12 13 14 15 16 17 18 19 20 21 22 23 24 25 26 27 28 29 30 31 32 33 34 35 36 37 38 39 40 41 42 43 44 45 46 47 48 49 50
000
ASUS43 KLMK 220602
RWRKY
KENTUCKY REGIONAL WEATHER ROUNDUP
NATIONAL WEATHER SERVICE LOUISVILLE KY
200 AM EDT WED OCT 22 2014

NOTE "FAIR" INDICATES FEW OR NO CLOUDS BELOW 12,000 FEET
WITH NO SIGNIFICANT WEATHER AND/OR OBSTRUCTIONS TO VISIBILITY.

KYZ001>023-026-027-061>063-070>075-220700-
WESTERN AND SOUTH CENTRAL KENTUCKY

CITY           SKY/WX    TMP DP  RH WIND       PRES   REMARKS
PADUCAH        CLEAR     44  43  96 CALM      30.17R
HENDERSON      CLEAR    N/A N/A N/A N6        30.18F
OWENSBORO      LGT RAIN  49  42  76 NE6       30.18F
HOPKINSVILLE   CLEAR     46  42  85 N6        30.15F
BOWLING GREEN  CLEAR     43  40  89 CALM      30.16S
GLASGOW        NOT AVBL
$$

KYZ024-025-028>034-038-045-046-053-220700-
NORTH CENTRAL KENTUCKY

CITY           SKY/WX    TMP DP  RH WIND       PRES   REMARKS
LOUISVILLE/SDF CLEAR     49  41  74 NE7       30.18R
LOUISVILLE/LOU CLEAR     48  41  76 NE5       30.19R
FORT KNOX      CLEAR     48  42  79 NE5       30.16R
$$

KYZ035>037-039>044-047>052-055>060-089>105-220700-
NORTHEAST KENTUCKY

CITY           SKY/WX    TMP DP  RH WIND       PRES   REMARKS
LEXINGTON      CLEAR     46  40  79 NE8       30.17R
COVINGTON      CLOUDY    48  35  60 NE13      30.18R
FRANKFORT      PTCLDY    46  41  82 N6        30.17R
$$

KYZ054-064>069-076>088-106>120-220700-
SOUTHEAST KENTUCKY

CITY           SKY/WX    TMP DP  RH WIND       PRES   REMARKS
JACKSON        CLOUDY    45  41  86 CALM      30.13S
LONDON         CLOUDY    49  41  74 N6        30.13S
SOMERSET       CLOUDY    48  41  76 NE8       30.15S
MIDDLESBORO    NOT AVBL
MONTICELLO     CLOUDY    50  43  77 CALM      30.15S
$$




USA.gov is the U.S. government's official web portal to all federal, state and local government web resources and services.